{"data":{"norad_id":57182,"epoch":"2026-09-19T21:20:30.803424Z","epoch_age_seconds":67200,"freshness":"FRESH","line1":"1 57182U 23091S   26262.88924541  .00006977  00000+0  24568-3 0  9993","line2":"2 57182  97.4980 327.0687 0012452 122.4028 237.8419 15.29560857178769","mean_motion":15.29560857,"eccentricity":0.0012452,"inclination_deg":97.498,"raan_deg":327.0687,"arg_perigee_deg":122.4028,"mean_anomaly_deg":237.8419,"bstar":0.00024568,"rev_number":17876,"period_min":94.144668609286,"perigee_km":468.58792858433,"apogee_km":485.66027082704,"semimajor_km":6855.2610997057,"source":"CELESTRAK","updated_at":"2026-09-20T09:00:45.237878Z"}}